When you browse on this site, cookies collect data to enhance your experience and personalize the content and advertising you see.
Visit our Privacy Policy to learn more. By continuing to use the site, you agree to this use of cookies and data.
  • In France
  • List of Countries
  • For 7 days
  • Water Temperature
  • Satellite Maps
  • Weather Map
  • Weather Widgets
  • user-avatar
    Login

    Hourly Weather Chorley

    Today, 16 June, Sunday

    Time Temperature Precipitation Wind Pressure Humidity
    00:00 +8°C° 0 mm 2 mps 747 mmHg 77%
    01:00 +8°C° 0 mm 2 mps 747 mmHg 80%
    02:00 +8°C° 0 mm 2 mps 747 mmHg 83%
    03:00 +8°C° 0 mm 3 mps 746 mmHg 86%
    04:00 +8°C° 0 mm 3 mps 747 mmHg 86%
    05:00 +9°C° 0 mm 3 mps 747 mmHg 86%
    06:00 +9°C° 0 mm 3 mps 747 mmHg 85%
    07:00 +11°C° 0 mm 3 mps 747 mmHg 79%
    08:00 +12°C° 0 mm 3 mps 747 mmHg 73%
    09:00 +14°C° 0 mm 4 mps 747 mmHg 67%
    10:00 +14°C° 0.1 mm 4 mps 747 mmHg 66%
    11:00 +16°C° 0.1 mm 3 mps 747 mmHg 64%
    12:00 +17°C° 0.1 mm 3 mps 747 mmHg 62%
    13:00 +17°C° 0.3 mm 3 mps 747 mmHg 62%
    14:00 +18°C° 0.3 mm 4 mps 747 mmHg 62%
    15:00 +18°C° 0.3 mm 4 mps 747 mmHg 62%
    16:00 +17°C° 0.2 mm 4 mps 747 mmHg 67%
    17:00 +15°C° 0.2 mm 4 mps 747 mmHg 72%
    18:00 +14°C° 0.2 mm 4 mps 747 mmHg 77%
    19:00 +14°C° 0.3 mm 4 mps 747 mmHg 80%
    20:00 +13°C° 0.3 mm 5 mps 747 mmHg 83%
    21:00 +13°C° 0.3 mm 5 mps 747 mmHg 86%
    22:00 +13°C° 0.1 mm 5 mps 747 mmHg 86%
    23:00 +12°C° 0.1 mm 5 mps 747 mmHg 86%

    Tomorrow, 17 June, Monday

    Time Temperature Precipitation Wind Pressure Humidity
    00:00 +12°C° 0.1 mm 5 mps 747 mmHg 86%
    01:00 +12°C° 0.1 mm 5 mps 747 mmHg 86%
    02:00 +12°C° 0.1 mm 5 mps 747 mmHg 86%
    03:00 +12°C° 0.1 mm 5 mps 747 mmHg 86%
    04:00 +12°C° 0.2 mm 5 mps 747 mmHg 87%
    05:00 +12°C° 0.2 mm 5 mps 747 mmHg 88%
    06:00 +11°C° 0.2 mm 4 mps 747 mmHg 89%
    07:00 +12°C° 0.3 mm 4 mps 747 mmHg 87%
    08:00 +13°C° 0.3 mm 5 mps 748 mmHg 85%
    09:00 +14°C° 0.3 mm 5 mps 748 mmHg 82%
    10:00 +14°C° 0.1 mm 5 mps 748 mmHg 77%
    11:00 +15°C° 0.1 mm 6 mps 748 mmHg 72%
    12:00 +16°C° 0.1 mm 6 mps 748 mmHg 66%
    13:00 +16°C° 0 mm 6 mps 748 mmHg 65%
    14:00 +17°C° 0 mm 6 mps 748 mmHg 63%
    15:00 +17°C° 0 mm 6 mps 747 mmHg 61%
    16:00 +17°C° 0.1 mm 6 mps 747 mmHg 63%
    17:00 +16°C° 0.1 mm 6 mps 747 mmHg 65%
    18:00 +16°C° 0.1 mm 5 mps 747 mmHg 68%
    19:00 +14°C° 0 mm 5 mps 747 mmHg 70%
    20:00 +13°C° 0 mm 4 mps 748 mmHg 71%
    21:00 +12°C° 0 mm 4 mps 748 mmHg 73%
    22:00 +11°C° 0 mm 3 mps 748 mmHg 76%
    23:00 +11°C° 0 mm 3 mps 748 mmHg 79%

    Day after tomorrow, 18 June, Tuesday

    Time Temperature Precipitation Wind Pressure Humidity
    00:00 +10°C° 0 mm 3 mps 748 mmHg 82%
    01:00 +10°C° 0 mm 3 mps 748 mmHg 83%
    02:00 +10°C° 0 mm 3 mps 748 mmHg 84%
    03:00 +10°C° 0 mm 3 mps 748 mmHg 84%
    04:00 +10°C° 0 mm 3 mps 748 mmHg 84%
    05:00 +11°C° 0 mm 3 mps 748 mmHg 84%
    06:00 +11°C° 0 mm 3 mps 748 mmHg 83%
    07:00 +12°C° 0.1 mm 3 mps 748 mmHg 80%
    08:00 +13°C° 0.1 mm 3 mps 749 mmHg 76%
    09:00 +14°C° 0.1 mm 4 mps 749 mmHg 72%
    10:00 +16°C° 0 mm 3 mps 749 mmHg 68%
    11:00 +17°C° 0 mm 3 mps 749 mmHg 65%
    12:00 +18°C° 0 mm 3 mps 749 mmHg 61%
    13:00 +18°C° 0 mm 3 mps 748 mmHg 63%
    14:00 +17°C° 0 mm 3 mps 748 mmHg 65%
    15:00 +17°C° 0 mm 3 mps 748 mmHg 67%
    16:00 +17°C° 0 mm 2 mps 748 mmHg 69%
    17:00 +16°C° 0 mm 2 mps 748 mmHg 70%
    18:00 +16°C° 0 mm 2 mps 748 mmHg 72%
    19:00 +15°C° 0 mm 2 mps 748 mmHg 75%
    20:00 +14°C° 0 mm 1 mps 748 mmHg 77%
    21:00 +13°C° 0 mm 1 mps 748 mmHg 80%
    22:00 +13°C° 0.1 mm 1 mps 747 mmHg 79%
    23:00 +13°C° 0.1 mm 1 mps 747 mmHg 78%

    19 June, Wednesday

    Time Temperature Precipitation Wind Pressure Humidity
    00:00 +13°C° 0.1 mm 1 mps 747 mmHg 77%
    01:00 +13°C° 0.1 mm 1 mps 747 mmHg 80%
    02:00 +13°C° 0.1 mm 1 mps 746 mmHg 83%
    03:00 +13°C° 0.1 mm 1 mps 746 mmHg 86%
    04:00 +14°C° 0.1 mm 1 mps 746 mmHg 86%
    05:00 +14°C° 0.1 mm 1 mps 746 mmHg 86%
    06:00 +14°C° 0.1 mm 1 mps 745 mmHg 86%
    07:00 +14°C° 0.1 mm 1 mps 745 mmHg 85%
    08:00 +15°C° 0.1 mm 1 mps 745 mmHg 83%
    09:00 +15°C° 0.1 mm 1 mps 745 mmHg 81%
    10:00 +15°C° 0.2 mm 1 mps 745 mmHg 83%
    11:00 +15°C° 0.2 mm 2 mps 745 mmHg 84%
    12:00 +15°C° 0.2 mm 2 mps 745 mmHg 86%
    13:00 +14°C° 0.8 mm 2 mps 744 mmHg 88%
    14:00 +12°C° 0.8 mm 3 mps 744 mmHg 91%
    15:00 +12°C° 0.8 mm 3 mps 744 mmHg 93%
    16:00 +12°C° 0.1 mm 3 mps 744 mmHg 92%
    17:00 +13°C° 0.1 mm 2 mps 744 mmHg 92%
    18:00 +13°C° 0.1 mm 2 mps 744 mmHg 91%
    19:00 +12°C° 0 mm 2 mps 744 mmHg 91%
    20:00 +12°C° 0 mm 2 mps 744 mmHg 91%
    21:00 +10°C° 0 mm 2 mps 744 mmHg 90%
    22:00 +10°C° 0 mm 2 mps 744 mmHg 91%
    23:00 +9°C° 0 mm 2 mps 744 mmHg 91%

    20 June, Thursday

    Time Temperature Precipitation Wind Pressure Humidity
    00:00 +9°C° 0 mm 2 mps 745 mmHg 91%
    01:00 +9°C° 0 mm 2 mps 745 mmHg 92%
    02:00 +9°C° 0 mm 2 mps 745 mmHg 93%
    03:00 +9°C° 0 mm 3 mps 745 mmHg 94%
    04:00 +10°C° 0 mm 3 mps 745 mmHg 92%
    05:00 +11°C° 0 mm 3 mps 745 mmHg 91%
    06:00 +11°C° 0 mm 4 mps 745 mmHg 89%
    07:00 +12°C° 0.1 mm 4 mps 746 mmHg 85%
    08:00 +13°C° 0.1 mm 5 mps 746 mmHg 80%
    09:00 +13°C° 0.1 mm 6 mps 746 mmHg 76%
    10:00 +14°C° 0 mm 5 mps 746 mmHg 70%
    11:00 +14°C° 0 mm 5 mps 747 mmHg 65%
    12:00 +15°C° 0 mm 5 mps 747 mmHg 59%
    13:00 +15°C° 0 mm 4 mps 747 mmHg 59%
    14:00 +15°C° 0 mm 4 mps 747 mmHg 59%
    15:00 +17°C° 0 mm 4 mps 747 mmHg 59%
    16:00 +15°C° 0.1 mm 4 mps 747 mmHg 62%
    17:00 +15°C° 0.1 mm 4 mps 747 mmHg 65%
    18:00 +14°C° 0.1 mm 4 mps 747 mmHg 68%
    19:00 +13°C° 0 mm 3 mps 747 mmHg 71%
    20:00 +13°C° 0 mm 2 mps 747 mmHg 74%
    21:00 +12°C° 0 mm 2 mps 748 mmHg 77%
    22:00 +12°C° 0 mm 2 mps 748 mmHg 78%
    23:00 +10°C° 0 mm 2 mps 748 mmHg 79%

    21 June, Friday

    Time Temperature Precipitation Wind Pressure Humidity
    00:00 +10°C° 0 mm 2 mps 748 mmHg 80%
    01:00 +9°C° 0 mm 2 mps 748 mmHg 82%
    02:00 +9°C° 0 mm 2 mps 748 mmHg 84%
    03:00 +9°C° 0 mm 2 mps 748 mmHg 86%
    04:00 +9°C° 0 mm 2 mps 748 mmHg 86%
    05:00 +10°C° 0 mm 2 mps 748 mmHg 85%
    06:00 +12°C° 0 mm 2 mps 749 mmHg 84%
    07:00 +12°C° 0.2 mm 3 mps 749 mmHg 81%
    08:00 +12°C° 0.2 mm 3 mps 749 mmHg 78%
    09:00 +13°C° 0.2 mm 4 mps 749 mmHg 76%
    10:00 +14°C° 0 mm 4 mps 749 mmHg 71%
    11:00 +14°C° 0 mm 5 mps 750 mmHg 67%
    12:00 +15°C° 0 mm 5 mps 750 mmHg 63%
    13:00 +15°C° 0 mm 5 mps 750 mmHg 63%
    14:00 +15°C° 0 mm 5 mps 750 mmHg 63%
    15:00 +15°C° 0 mm 5 mps 750 mmHg 63%
    16:00 +14°C° 0 mm 5 mps 750 mmHg 65%
    17:00 +13°C° 0 mm 5 mps 751 mmHg 66%
    18:00 +13°C° 0 mm 5 mps 751 mmHg 68%
    19:00 +12°C° 0 mm 5 mps 751 mmHg 72%
    20:00 +11°C° 0 mm 4 mps 752 mmHg 76%
    21:00 +9°C° 0 mm 3 mps 752 mmHg 80%
    22:00 +9°C° 0 mm 3 mps 753 mmHg 81%
    23:00 +9°C° 0 mm 2 mps 753 mmHg 82%
    Show more